Weather History for KSYR - March, 2014

Change the Weather History Date:

Saturday, March 15, 2014

  Actual Average Record
Temperature  
Mean Temperature 34 °F 34 °F  
Max Temperature 46 °F 43 °F 78 °F (1990)
Min Temperature 22 °F 25 °F 1 °F (1993)
Degree Days  
Heating Degree Days 31 31  
Month to date heating degree days 633 508  
Since 1 July heating degree days 5725 5339  
Cooling Degree Days 0 0  
Month to date cooling degree days 0 0  
Year to date cooling degree days 0 0  
Moisture  
Dew Point 28 °F    
Average Humidity 65    
Maximum Humidity 85    
Minimum Humidity 45    
Precipitation  
Precipitation 0.06 in 0.09 in 0.81 in (1916)
Month to date precipitation 0.25 1.33  
Year to date precipitation 5.80 5.90  
Snow  
Snow 0.20 in 0.60 in 3.10 in (1967)
Month to date snowfall 18.7 11.2  
Since 1 July snowfall 128.6 113.1  
Snow Depth 0.00 in    
Sea Level Pressure  
Sea Level Pressure 29.81 in    
Wind  
Wind Speed 14 mph (West)    
Max Wind Speed 28 mph    
Max Gust Speed 44 mph    
Visibility 9 miles    
Events Rain , Snow    
T = Trace of Precipitation, MM = Missing Value Source: NWS Daily Summary

Daily Weather History Graph

Daily Weather History Graph

Search for Another Location

Airport or City:

Trip Planner

Search our weather history database for the weather conditions in past years. The results will help you decide how hot, cold, wet, or windy it might be!

Date:

Astronomy

Mar. 15, 2014 Rise Set
Actual Time 7:16 AM EDT 7:10 PM EDT
Civil Twilight 6:48 AM EDT 7:39 PM EDT
Nautical Twilight 6:15 AM EDT 8:12 PM EDT
Astronomical Twilight 5:41 AM EDT 8:45 PM EDT
Moon 6:27 PM EDT (3/15) 6:28 AM EDT (3/15)
Length of Visible Light 12h 50m
Length of Day
11h 54m
Waxing Gibbous, 99% of the Moon is Illuminated
Mar 15
Waxing Gibbous
Mar 16
Full
Mar 23
Last Quarter
Mar 30
New
Apr 7
First Quarter

Hourly Weather History & Observations

Time (EDT) Temp. Windchill Dew Point Humidity Pressure Visibility Wind Dir Wind Speed Gust Speed Precip Events Conditions
12:54 AM 44.1 °F 41.5 °F 24.1 °F 45% 29.60 in 10.0 mi West 4.6 mph - N/A   Overcast
1:54 AM 42.1 °F 36.6 °F 28.0 °F 58% 29.64 in 10.0 mi West 9.2 mph - 0.00 in Rain Light Rain
2:54 AM 41.0 °F 35.2 °F 32.0 °F 70% 29.61 in 10.0 mi South 9.2 mph - 0.02 in   Overcast
3:54 AM 41.0 °F 36.4 °F 34.0 °F 76% 29.60 in 10.0 mi SSW 6.9 mph - N/A   Overcast
4:54 AM 42.1 °F 36.6 °F 35.1 °F 76% 29.60 in 10.0 mi SSW 9.2 mph - N/A   Overcast
6:54 AM 42.1 °F 34.5 °F 34.0 °F 73% 29.63 in 10.0 mi WSW 15.0 mph - 0.00 in Rain Light Rain
7:54 AM 39.9 °F 31.4 °F 30.9 °F 70% 29.66 in 10.0 mi WSW 16.1 mph 23.0 mph 0.00 in   Overcast
8:54 AM 39.9 °F 33.4 °F 30.9 °F 70% 29.68 in 10.0 mi SW 10.4 mph - 0.00 in Rain Light Rain
9:54 AM 37.0 °F 28.5 °F 32.0 °F 82% 29.71 in 10.0 mi WSW 13.8 mph - 0.00 in Rain Light Rain
10:38 AM 37.4 °F 28.2 °F 33.8 °F 87% 29.73 in 8.0 mi West 16.1 mph - 0.02 in Rain Light Rain
10:54 AM 37.0 °F 28.5 °F 33.1 °F 86% 29.74 in 10.0 mi WSW 13.8 mph - 0.02 in Rain Light Rain
11:54 AM 37.9 °F 28.9 °F 33.1 °F 83% 29.75 in 10.0 mi WSW 16.1 mph - 0.01 in Rain Light Rain
12:46 PM 37.4 °F 28.5 °F 33.8 °F 87% 29.78 in 10.0 mi West 15.0 mph - 0.00 in Rain Light Rain
12:54 PM 37.9 °F 29.2 °F 33.1 °F 83% 29.78 in 10.0 mi West 15.0 mph - 0.00 in Rain Light Rain
1:54 PM 37.9 °F 30.5 °F 33.1 °F 83% 29.80 in 10.0 mi WSW 11.5 mph - 0.00 in   Overcast
2:54 PM 37.9 °F 30.9 °F 30.9 °F 76% 29.80 in 10.0 mi West 10.4 mph - 0.00 in   Overcast
3:54 PM 35.1 °F 24.8 °F 28.9 °F 78% 29.85 in 8.0 mi WNW 17.3 mph 27.6 mph 0.00 in Snow Light Snow
4:35 PM 33.8 °F 23.2 °F 28.4 °F 81% 29.87 in 3.0 mi West 17.3 mph - 0.00 in Snow Light Snow
4:54 PM 34.0 °F 24.6 °F 28.0 °F 79% 29.88 in 9.0 mi West 13.8 mph - 0.00 in Snow Light Snow
5:54 PM 33.1 °F 23.4 °F 27.0 °F 78% 29.92 in 9.0 mi WNW 13.8 mph 21.9 mph 0.01 in Snow Light Snow
6:11 PM 32.0 °F 19.2 °F 24.8 °F 75% 29.94 in 5.0 mi WNW 23.0 mph 31.1 mph 0.00 in Snow Light Snow
6:54 PM 30.9 °F 19.1 °F 24.1 °F 76% 29.99 in 4.0 mi WNW 18.4 mph 29.9 mph 0.00 in Snow Light Snow
7:54 PM 30.0 °F 16.6 °F 18.0 °F 61% 30.02 in 10.0 mi West 23.0 mph 32.2 mph 0.00 in   Mostly Cloudy
8:54 PM 28.9 °F 17.3 °F 21.0 °F 72% 30.06 in 7.0 mi WNW 16.1 mph - 0.00 in Snow Light Snow
9:54 PM 27.0 °F 14.3 °F 19.0 °F 72% 30.09 in 9.0 mi WNW 17.3 mph 24.2 mph 0.00 in Snow Light Snow
10:54 PM 26.1 °F 14.0 °F 16.0 °F 66% 30.12 in 9.0 mi WNW 15.0 mph 24.2 mph 0.00 in Snow Light Snow
11:54 PM 24.1 °F 11.5 °F 15.1 °F 69% 30.12 in 7.0 mi WNW 15.0 mph 24.2 mph 0.00 in Snow Light Snow